Location: Observatoire
(46.1952°N, 5.3391°E)
Time: 14:49:41
(UTC+02:00)

PCSat - Visible Passes

Search period start: 13 April 2024 00:00
Search period end: 23 April 2024 00:00
Orbit: 783 x 792 km, 67.0° (Epoch: 12 April)

Date Brightness Start Highest point End Pass type
(mag) Time Alt. Az. Time Alt. Az. Time Alt. Az.
13 Apr 11.6 00:43:21 13° W 00:47:04 25° NW 00:51:30 10° NNE visible
13 Apr 12.2 06:00:10 10° NNW 06:04:21 22° NE 06:08:31 10° E visible
13 Apr 9.6 22:27:59 19° S 22:31:39 52° ESE 22:36:55 10° NE visible
14 Apr 11.2 00:10:30 10° WSW 00:15:16 31° NW 00:20:04 10° NNE visible
14 Apr 12.6 01:59:42 10° NNW 02:00:28 10° NNW 02:01:13 10° NNW visible
14 Apr 12.3 05:28:48 10° N 05:32:28 18° NE 05:36:08 10° ENE visible
14 Apr 10.0 21:55:13 10° S 22:00:10 38° ESE 22:05:09 10° NE visible
14 Apr 10.9 23:38:28 10° WSW 23:43:31 39° NW 23:48:35 10° NNE visible
15 Apr 12.5 01:26:24 10° NW 01:28:26 12° NNW 01:30:29 10° N visible
15 Apr 12.5 04:57:29 10° N 05:00:33 15° NNE 05:03:37 10° ENE visible
15 Apr 10.4 21:24:10 10° SSE 21:28:43 28° ESE 21:33:15 10° NE visible
15 Apr 10.4 23:06:32 10° SW 23:11:47 50° NW 23:17:05 10° NNE visible
16 Apr 12.4 00:53:38 10° WNW 00:56:27 14° NNW 00:59:18 10° N visible
16 Apr 12.6 04:26:14 10° N 04:28:35 13° NNE 04:30:55 10° NE visible
16 Apr 11.0 06:08:16 10° NNW 06:13:26 42° NE 06:18:33 10° ESE visible
16 Apr 10.7 20:53:24 10° SSE 20:57:18 21° ESE 21:01:13 10° ENE visible
16 Apr 9.9 22:34:45 10° SW 22:40:07 67° NW 22:45:32 10° NNE visible
17 Apr 12.3 00:21:03 10° WNW 00:24:31 17° NNW 00:28:00 10° N visible
17 Apr 12.8 03:55:15 10° N 03:56:34 11° NNE 03:57:53 10° NE visible
17 Apr 11.5 05:36:46 10° NNW 05:41:41 33° NE 05:46:33 10° ESE visible
17 Apr 9.5 22:03:05 10° SSW 22:08:29 88° WNW 22:13:57 10° NNE visible
17 Apr 12.1 23:48:37 10° W 23:52:37 20° NW 23:56:38 10° NNE visible
18 Apr 11.9 05:05:19 10° NNW 05:09:53 26° NE 05:14:25 10° E visible
18 Apr 9.5 21:31:33 10° SSW 21:36:55 70° ESE 21:42:19 10° NE visible
18 Apr 11.8 23:16:20 10° W 23:20:46 25° NW 23:25:13 10° NNE visible
19 Apr 12.2 04:33:54 10° NNW 04:38:02 22° NE 04:42:10 10° E visible
19 Apr 9.7 21:00:10 10° S 21:05:23 51° ESE 21:10:36 10° NE visible
19 Apr 11.5 22:44:10 10° WSW 22:48:57 31° NW 22:53:47 10° NNE visible
20 Apr 12.9 00:33:12 10° NNW 00:34:08 10° NNW 00:35:04 10° N visible
20 Apr 12.4 04:02:32 10° N 04:06:10 18° NNE 04:09:46 10° ENE visible
20 Apr 9.9 05:45:03 10° NNW 05:50:29 72° NE 05:55:53 10° SE visible
20 Apr 11.0 22:12:08 10° WSW 22:17:12 40° NW 22:22:18 10° NNE visible
21 Apr 12.8 00:00:00 10° NW 00:02:06 12° NNW 00:04:14 10° N visible
21 Apr 12.6 03:31:12 10° N 03:34:13 15° NNE 03:37:14 10° ENE visible
21 Apr 10.4 05:13:29 10° NNW 05:18:49 54° NE 05:24:07 10° SE visible
21 Apr 10.5 21:40:13 10° SW 21:45:29 52° NW 21:50:47 10° NNE visible
21 Apr 12.7 23:27:14 10° WNW 23:30:08 14° NNW 23:33:02 10° N visible
22 Apr 12.8 02:59:58 10° N 03:02:15 12° NNE 03:04:30 10° NE visible
22 Apr 10.9 04:41:58 10° NNW 04:47:07 41° NE 04:52:13 10° ESE visible
22 Apr 10.0 21:08:26 10° SW 21:13:48 68° NW 21:19:14 10° NNE visible
22 Apr 12.5 22:54:40 10° WNW 22:58:11 17° NNW 23:01:43 10° N visible
